Printer-friendly version

IAU Minor Planet Center

Minor Planet Center

MPEC 2002-A88: COMET P/2001 T3 (NEAT)

The following Minor Planet Electronic Circular may be linked-to from your own Web pages, but must not otherwise be redistributed electronically.


Read MPEC 2002-A87 Read MPEC 2002-A89


M.P.E.C. 2002-A88                                Issued 2002 Jan. 15, 17:55 UT

     The Minor Planet Electronic Circulars contain information on unusual
         minor planets and routine data on comets.  They are published
   on behalf of Commission 20 of the International Astronomical Union by the
          Minor Planet Center, Smithsonian Astrophysical Observatory,
                          Cambridge, MA 02138, U.S.A.

             Prepared using the Tamkin Foundation Computer Network

                              MPC@CFA.HARVARD.EDU
          URL http://cfa-www.harvard.edu/iau/mpc.html  ISSN 1523-6714

                            COMET P/2001 T3 (NEAT)

Observations:
    PK01T030  C2002 01 02.09157 01 26 28.16 +03 39 15.8          17.4 T      644
    PK01T030  C2002 01 02.11270 01 26 28.97 +03 39 32.8          17.2 T      644
    PK01T030  C2002 01 02.13478 01 26 29.82 +03 39 50.7          17.4 T      644
    PK01T030  C2002 01 02.57792 01 26 47.18 +03 45 48.1                      322
    PK01T030  C2002 01 04.80603 01 28 19.21 +04 15 30.3          17.5 T      046
    PK01T030  C2002 01 04.80751 01 28 19.17 +04 15 31.0                      046
    PK01T030  C2002 01 04.80859 01 28 19.21 +04 15 32.0                      046
    PK01T030  C2002 01 04.80968 01 28 19.31 +04 15 33.0                      046
    PK01T030  C2002 01 07.82370 01 30 33.52 +04 56 02.0          17.1 T      170
    PK01T030  C2002 01 07.82855 01 30 33.71 +04 56 05.5          17.1 T      170

Observer details:
046 Klet.  Observers J. Ticha, M. Tichy.  0.57-m f/5.2 reflector + CCD.
170 Observatorio de Beques.  Observer J. Manteca.  0.26-m Schmidt-Cassegrain
    + CCD.
322 Perth Observatory, Bickley-MCT.  Observer A. O'Brien.  0.25-m f/4.5
    reflector + CCD.
644 Palomar Mountain/NEAT.  Observers E. F. Helin, S. Pravdo, K. Lawrence,
    M. Hicks, E. Hovland, T. Bickler, J. Schroeder, L. Scherr, R. Thicksten,
    A. Deetz.  1.2-m Schmidt + CCD.

Orbital elements:
    P/2001 T3 (NEAT)
Epoch 2002 Feb. 15.0 TT = JDT 2452320.5
T 2002 Feb. 1.11046 TT                                  MPC
q   2.5057742            (2000.0)            P               Q
n   0.05934201     Peri.  356.23878     +0.60187879     -0.74998625
a   6.5097038      Node    56.53796     +0.74100308     +0.39640488
e   0.6150709      Incl.   19.19875     +0.29775217     +0.52951279
P  16.61
Residuals in seconds of arc
011011 704  0.2-  0.3-    011018 342  1.3+  0.3+    011120 204  0.1-  0.1+
011011 704  0.5+  0.2+    011018 170  0.4-  1.2+    011121 342  0.2-  0.5-
011011 704  0.4+  0.3-    011018 170  0.1-  0.3+    011121 342  0.2-  0.2-
011011 704  0.1+  0.2+    011018 170  0.8+  0.5+    011122 867  0.6-  0.1-
011011 704  0.4-  0.8+    011019 699  0.0   0.0     011122 867  0.4-  0.0
011014 644  1.3+  1.0-    011019 699  0.5-  0.2+    011122 867  0.5-  0.0
011014 644  1.2+  0.7-    011019 699  1.4-  0.3+    011129 213 (2.4+  1.9-)
011014 644  1.3+  0.9-    011019 699  0.4-  0.4+    011129 213 (1.3-  2.9-)
011014 046  0.6+  0.3-    011021 170  1.7-  0.1-    011129 213  1.2-  0.7-
011014 046  0.2-  0.3+    011022 644  0.2-  0.7+    011201 213  0.4-  0.7-
011014 046  0.3+  0.1+    011022 644  0.2+  0.6+    011201 213  0.9+  0.8-
011014 046  1.2-  0.7+    011022 644  0.4+  0.2+    011202 170  1.4+  0.0
011014 557  0.9-  0.1-    011024 360  0.1-  0.1-    011202 170  0.7-  0.4+
011014 557  1.5-  0.1-    011024 360  0.3-  0.3-    011202 170 (2.1-  3.0+)
011014 557  1.8-  0.2-    011025 402  0.3-  0.1-    011204 372  0.6+  0.9-
011014 557  0.4-  0.0     011025 402  0.5-  0.0     011204 372  1.0+  1.7-
011014 118  0.4-  0.2-    011025 402  0.0   0.4+    011205 104  0.2+  0.3-
011014 118  0.3+  0.2+    011105 118  0.2-  0.1+    011205 104  0.3+  0.9-
011014 118  0.3-  1.2+    011105 118  0.2+  0.4-    011205 213  0.3-  0.5+
011015 118  1.3-  0.6+    011105 118  0.2-  0.7+    011205 213  0.5+  0.2-
011015 644  0.2-  0.2+    011107 170  0.3-  0.5-    011205 213  1.1+  0.5+
011015 644  0.0   0.0     011110 342  0.0   0.0     011207 704  0.5+  0.2-
011015 644  0.1-  0.1-    011110 342  0.3-  0.6-    011207 704  1.4+  0.2+
011015 644  0.1+  0.4+    011111 046  0.9+  0.1+    011207 704  0.1+  0.2+
011015 644  0.4-  0.5+    011111 046  0.2-  0.2-    011207 704  0.1+  0.1-
011015 644  0.4-  0.5+    011111 046  0.8-  0.3+    011207 704  1.2+  1.2+
011015 608  0.2-  0.5-    011111 046  0.0   0.1+    011211 372  1.3+  0.7-
011015 608  0.2-  0.6-    011114 402  0.1+  0.1-    011214 372  0.3+  0.0
011015 608  0.2-  0.2-    011114 402  0.0   0.9+    011218 704  0.5-  1.2+
011015 321  0.0   0.1-    011114 402  0.3-  0.3-    011218 704 (0.7+  2.3+)
011015 321  0.8+  0.2+    011115 644  0.4-  0.2+    011218 704 (0.5-  2.5+)
011015 321  0.4-  0.1-    011115 644  0.8-  0.2+    011218 704  0.1-  1.6+
011015 321  0.4+  0.2+    011115 644  0.3-  0.4+    011218 704  0.0   1.3+
011015 321  0.1+  0.3+    011119 704 (2.7-  0.1+)   011218 360  0.5-  0.7-
011015 321  0.3+  0.1-    011119 704 (3.9-  0.1-)   011218 360  0.5-  0.8-
011015 321  0.6+  0.0     011119 704 (3.6-  0.1+)   011218 372  0.5+  0.1-
011015 046  0.6+  0.4-    011119 704 (3.3-  0.5+)   020102 644  0.2+  0.1-
011015 046  0.5+  0.3+    011119 704 (3.3-  0.5+)   020102 644  0.4+  0.1+
011015 046  0.6+  0.6-    011119 349  0.0   1.0+    020102 644  0.6+  0.3+
011015 046  0.3+  1.1-    011119 349  0.2-  0.7+    020102 322  0.4-  0.7-
011015 046 (0.5+  2.1+)   011120 608  0.5-  0.5-    020104 046  0.0   0.6+
011015 046  1.0+  0.5-    011120 608  0.0   0.1-    020104 046  1.5-  0.1+
011015 046  1.2+  0.1-    011120 608  0.5-  0.9-    020104 046  1.6-  0.2+
011015 046  0.0   0.9-    011120 360  0.6-  0.0     020104 046  0.8-  0.4+
011018 360  0.7+  0.0     011120 360  0.5-  0.1-    020107 170  0.7+  0.1+
011018 360  0.8+  0.0     011120 372  1.1+  0.5-    020107 170  0.2+  0.3-
011018 342  0.6+  0.4-    011120 204 (5.5+  9.3-)

Brian G. Marsden             (C) Copyright 2002 MPC           M.P.E.C. 2002-A88

Read MPEC 2002-A87 Read MPEC 2002-A89


Our Web policy. Index to the CBAT/MPC/ICQ pages.


Valid HTML 4.01!